Regional Weather Roundup
Issued by NWS Newport/Morehead, NC

Home | Current Version | Previous Version | Text Only | Print | Product List | Glossary On
Versions: 1 2 3 4 5 6 7 8 9 10 11 12 13 14 15 16 17 18 19 20 21 22 23 24 25 26 27 28 29 30 31 32 33 34 35 36 37 38 39 40 41 42 43 44 45 46 47 48 49 50
000
ASUS42 KMHX 192322
RWRMHX
WEATHER ROUNDUP FOR EASTERN NORTH CAROLINA
NATIONAL WEATHER SERVICE NEWPORT/MOREHEAD CITY NC
700 PM EDT SAT APR 19 2014

NOTE: "FAIR" INDICATES FEW OR NO CLOUDS BELOW 12,000 FEET
WITH NO SIGNIFICANT WEATHER AND/OR OBSTRUCTIONS TO VISIBILITY

NCZ015>017-031-032-045>047-102-103-200000-
NORTH COAST

CITY           SKY/WX    TMP DP  RH WIND       PRES   REMARKS
EDENTON        DRIZZLE   49  44  83 NE8       30.17F
ELIZABETH CITY CLOUDY    50  42  74 N14       30.19S
KITTY HAWK     DRIZZLE   48  46  92 N9G18     30.15S
MANTEO         DRIZZLE   49  46  92 NE16G23   30.16R

$$

NCZ045>047-081-094-103-104-200000-
CENTRAL COAST

CITY           SKY/WX    TMP DP  RH WIND       PRES   REMARKS
FRISCO         LGT RAIN  52  52 100 NE13G31   30.05F FOG
SWANQUARTER      N/A     50 N/A N/A NE16G30   30.06F

$$

NCZ095-097-098-100-101-200000-
SOUTHERN COAST

CITY           SKY/WX    TMP DP  RH WIND       PRES   REMARKS
BEAUFORT       CLOUDY    56  53  90 NE13G24   30.08R
CEDAR ISLAND     N/A     55 N/A N/A N28G37    30.12S
JACKSONVILLE   LGT RAIN  52  52 100 N14       30.10R
NEWPORT          N/A     54  52  94 N10         N/A
PINEY ISLAND   CLOUDY    56  53  90 N25G35    30.06F
WILMINGTON     RAIN      54  51  90 N16       30.07R FOG


$$

NCZ011>013-027>030-043-044-078>080-089-090>093-098-200000-
COASTAL PLAIN

CITY           SKY/WX    TMP DP  RH WIND       PRES   REMARKS
AHOSKIE        CLOUDY    50  40  68 N7        30.20S
CLINTON        HVY RAIN  48  47  97 NE8G20    30.14S
ELIZABETHTOWN  DRIZZLE   51  49  95 NE5       30.11S
GOLDSBORO      CLOUDY    50  48  93 N10       30.14F
GREENVILLE     CLOUDY    50  41  71 NE14G21   30.18R
HAVELOCK       CLOUDY    53  49  86 N17       30.11R
KENANSVILLE    RAIN      47  46  95 NE9       30.14S
KINSTON        CLOUDY    50  45  81 N10G16    30.17R FOG
NEW BERN       CLOUDY    51  47  86 N8        30.14R
RICHLANDS      CLOUDY    50  50 100 N14       30.12R
ROANOKE RAPIDS NOT AVBL
ROCKY MOUNT    CLOUDY    52  42  69 N12       30.20R
WASHINGTON     CLOUDY    50  46  84 N8        30.16R
WHITEVILLE     CLOUDY    54  50  87 NE10G20   30.07R

$$

AMZ130-135-150-152-154-156-158-170-250-252-270-ANZ085-086-088-633-658-670-200000-
MARINE OBSERVATIONS

STATION/POSITION TIME  TEMP    WIND        PRES    WAVE   SWELL
                       AIR SEA DIR/SP/G            HT/PER HT/PER
                 (UTC) (F)     (DEG/KT/KT) (MB)    (FT/S) (FT/S)
CHESAPEAKE LIGHT 2300   46      30/ 14/ 16 1023.8
BUOY 44014       2300   51 48   20/ 16/ 17 1021.6    6/11   5/11
DUCK             2300   48 49   20/ 19/ 21 1020.8
2E DUCK          2300      47                N/A     6/ 7   2/11
OREGON INLET     2300   49 51  360/ 11/ 19 1020.4
BUOY 44095       2300      48                N/A     8/ 8   2/11
HATTERAS CG      2300   53 56   30/ 20/ 27 1016.9
DIAMOND BUOY     NOT AVBL
CAPE LOOKOUT     2300   56      20/ 21/ 26 1018.0
BEAUFORT LAB     2300   56 58   20/ 11/ 18 1018.1
30 SE NEW RIVER  2300   59 66   40/ 29/ 35 1016.2    9/ 7   5/ 9
5 SE WRIGHTSVILL 2300   56 59   40/ 25/ 31 1016.6
FRYING PAN BUOY  2300   62 65   50/ 29/ 35 1013.3   12/ 8
BUOY 41001       NOT AVBL
BUOY 41002       NOT AVBL
BUOY 41004       NOT AVBL

$$



USA.gov is the U.S. government's official web portal to all federal, state and local government web resources and services.